HK4LRM-13 Weather Reports


time (UTC)temp
C
wind
direction
speed
KPH
gust
KPH
rain 1hr
cm
rain 24hr
cm
rain mn
cm
humidity
%
barometer
mb
20260507202314 25 120 8.0 0.0 0.00 0.00 0.00 56 1008.0
20260507201413 25 110 8.0 0.0 0.00 0.00 0.00 58 1008.0
20260507200512 25 110 8.0 0.0 0.00 0.00 0.00 58 1008.0
20260507195611 25 110 8.0 0.0 0.00 0.00 0.00 57 1008.0
20260507194711 25 110 8.0 0.0 0.00 0.00 0.00 55 1008.0
20260507193810 25 110 8.0 0.0 0.00 0.00 0.00 53 1008.0
20260507192009 26 110 8.0 0.0 0.00 0.00 0.00 49 1009.0
20260507191109 26 110 8.0 0.0 0.00 0.00 0.00 49 1009.0
20260507190207 26 110 8.0 0.0 0.00 0.00 0.00 49 1009.0
20260507185307 25 110 8.0 0.0 0.00 0.00 0.00 50 1009.0
20260507184406 25 110 8.0 0.0 0.00 0.00 0.00 50 1009.0
20260507183506 26 110 8.0 0.0 0.00 0.00 0.00 50 1010.0
20260507182605 26 110 8.0 0.0 0.00 0.00 0.00 50 1010.0
20260507181704 26 110 8.0 0.0 0.00 0.00 0.00 50 1010.0
20260507180804 26 110 8.0 0.0 0.00 0.00 0.00 50 1010.0
20260507175903 26 0 6.4 0.0 0.00 0.00 0.00 50 1010.0
20260507175002 26 0 6.4 0.0 0.00 0.00 0.00 50 1010.0
20260507174102 26 0 6.4 0.0 0.00 0.00 0.00 50 1010.0
20260507173201 26 0 8.0 0.0 0.00 0.00 0.00 49 1012.0
20260507172259 25 0 8.0 0.0 0.00 0.00 0.00 50 1012.0
20260507171359 26 0 8.0 0.0 0.00 0.00 0.00 50 1012.0
20260507170457 26 0 8.0 0.0 0.00 0.00 0.00 50 1012.0
20260507165556 26 0 8.0 0.0 0.00 0.00 0.00 50 1012.0
20260507164656 26 0 8.0 0.0 0.00 0.00 0.00 50 1012.0
20260507163755 25 0 8.0 0.0 0.00 0.00 0.00 55 1013.0
20260507162854 25 0 8.0 0.0 0.00 0.00 0.00 55 1013.0
20260507161953 24 0 8.0 0.0 0.00 0.00 0.00 56 1013.0
20260507161053 25 0 8.0 0.0 0.00 0.00 0.00 56 1013.0
20260507160152 25 0 8.0 0.0 0.00 0.00 0.00 56 1013.0
20260507155252 25 0 8.0 0.0 0.00 0.00 0.00 55 1013.0
20260507154351 25 0 8.0 0.0 0.00 0.00 0.00 54 1013.0
20260507153448 23 0 8.0 0.0 0.00 0.00 0.00 69 1013.0
20260507152547 23 0 8.0 0.0 0.00 0.00 0.00 70 1014.0
20260507151644 23 0 8.0 0.0 0.00 0.00 0.00 70 1014.0
20260507150743 23 0 0.0 0.0 0.00 0.00 0.00 70 1014.0
20260507145843 23 0 0.0 0.0 0.00 0.00 0.00 70 1014.0
20260507144942 23 0 0.0 0.0 0.00 0.00 0.00 70 1014.0
20260507144040 22 140 4.8 0.0 0.00 0.00 0.00 68 1015.0
20260507143139 22 140 4.8 0.0 0.00 0.00 0.00 71 1015.0
20260507142237 22 140 4.8 0.0 0.00 0.00 0.00 71 1015.0
20260507141336 21 140 4.8 0.0 0.00 0.00 0.00 74 1015.0
20260507140433 21 0 1.6 0.0 0.00 0.00 0.00 75 1015.0
20260507135531 21 0 1.6 0.0 0.00 0.00 0.00 75 1015.0
20260507134631 21 0 1.6 0.0 0.00 0.00 0.00 75 1015.0
20260507133730 21 0 3.2 0.0 0.00 0.00 0.00 75 1015.0
20260507132829 17 0 1.6 0.0 0.00 0.00 0.00 99 1016.0
20260507131929 17 0 1.6 0.0 0.00 0.00 0.00 10 1016.0
20260507131028 17 0 1.6 0.0 0.00 0.00 0.00 10 1016.0
20260507130127 16 200 4.8 0.0 0.00 0.00 0.00 10 1016.0
20260507125227 16 360 17.7 0.0 0.00 0.00 0.00 97 1016.0
20260507124326 16 360 17.7 0.0 0.00 0.00 0.00 97 1016.0
20260507123425 16 360 17.7 0.0 0.00 0.00 0.00 97 1016.0
20260507122523 16 360 17.7 0.0 0.00 0.00 0.00 97 1016.0
20260507121622 16 360 17.7 0.0 0.00 0.00 0.00 97 1016.0
20260507120721 16 360 17.7 0.0 0.00 0.00 0.00 97 1016.0
20260507115820 16 360 17.7 0.0 0.00 0.00 0.00 97 1016.0
20260507114920 16 360 17.7 0.0 0.00 0.00 0.00 97 1016.0
20260507114019 16 360 17.7 0.0 0.00 0.00 0.00 97 1016.0
20260507113118 16 360 17.7 0.0 0.00 0.00 0.00 97 1016.0
20260507112218 16 360 17.7 0.0 0.00 0.00 0.00 97 1016.0
20260507111317 16 360 17.7 0.0 0.00 0.00 0.00 97 1016.0
20260507110417 16 360 17.7 0.0 0.00 0.00 0.00 97 1016.0
20260507105515 16 360 17.7 0.0 0.00 0.00 0.00 97 1016.0
20260507104614 16 360 17.7 0.0 0.00 0.00 0.00 97 1016.0
20260507103714 16 360 17.7 0.0 0.00 0.00 0.00 97 1016.0
20260507102813 16 360 17.7 0.0 0.00 0.00 0.00 97 1016.0
20260507101911 16 360 17.7 0.0 0.00 0.00 0.00 97 1016.0
20260507101011 16 360 17.7 0.0 0.00 0.00 0.00 97 1016.0
20260507100109 16 360 17.7 0.0 0.00 0.00 0.00 97 1016.0
20260507095209 16 360 17.7 0.0 0.00 0.00 0.00 97 1016.0
20260507094307 16 360 17.7 0.0 0.00 0.00 0.00 97 1016.0
20260507093407 16 360 17.7 0.0 0.00 0.00 0.00 97 1016.0
20260507092506 16 360 17.7 0.0 0.00 0.00 0.00 97 1015.0
20260507091604 16 360 17.7 0.0 0.00 0.00 0.00 97 1015.0
20260507090704 16 360 17.7 0.0 0.00 0.00 0.00 97 1015.0
20260507085804 16 360 17.7 0.0 0.00 0.00 0.00 96 1015.0
20260507084903 16 360 17.7 0.0 0.00 0.00 0.00 96 1015.0
20260507084003 16 360 17.7 0.0 0.00 0.00 0.00 96 1015.0
20260507083102 16 360 17.7 0.0 0.00 0.00 0.00 96 1015.0
20260507082202 16 360 17.7 0.0 0.00 0.00 0.00 96 1015.0
20260507081301 16 360 17.7 0.0 0.00 0.00 0.00 95 1015.0
20260507080400 16 360 17.7 0.0 0.00 0.00 0.00 94 1015.0
20260507075500 16 360 17.7 0.0 0.00 0.00 0.00 94 1015.0
20260507074559 16 360 17.7 0.0 0.00 0.00 0.00 93 1015.0
20260507073658 17 360 17.7 0.0 0.00 0.00 0.00 92 1016.0
20260507072755 17 360 17.7 0.0 0.00 0.00 0.00 92 1016.0
20260507071854 17 360 17.7 0.0 0.00 0.00 0.00 90 1016.0
20260507070953 17 360 17.7 0.0 0.00 0.00 0.00 90 1016.0
20260507070052 17 360 17.7 0.0 0.00 0.00 0.00 89 1016.0
20260507065137 17 360 17.7 0.0 0.00 0.00 0.00 89 1016.0
20260507064236 17 360 17.7 0.0 0.00 0.00 0.00 88 1016.0
20260507063334 17 360 17.7 0.0 0.00 0.00 0.00 88 1016.0
20260507062434 17 360 17.7 0.0 0.00 0.00 0.00 88 1016.0
20260507061533 17 360 17.7 0.0 0.00 0.00 0.00 88 1016.0
20260507060632 17 360 17.7 0.0 0.00 0.00 0.00 88 1016.0
20260507055729 17 360 17.7 0.0 0.00 0.00 0.00 88 1016.0
20260507054828 17 360 17.7 0.0 0.00 0.00 0.00 88 1016.0
20260507053927 17 360 17.7 0.0 0.00 0.00 0.00 88 1016.0
20260507053026 17 360 17.7 0.0 0.00 0.00 0.00 87 1017.0
20260507052123 17 360 17.7 0.0 0.00 0.00 0.00 86 1017.0
20260507051223 17 360 17.7 0.0 0.00 0.00 0.00 86 1017.0
20260507050321 17 360 17.7 0.0 0.00 0.00 0.00 85 1017.0
20260507045416 17 360 17.7 0.0 0.00 0.00 0.00 84 1017.0
20260507044515 17 360 17.7 0.0 0.00 0.00 0.00 83 1017.0
20260507043613 17 360 17.7 0.0 0.00 0.00 0.00 83 1017.0
20260507042713 17 360 17.7 0.0 0.00 0.00 0.00 81 1017.0
20260507041811 17 360 17.7 0.0 0.00 0.00 0.00 81 1017.0
20260507040911 17 360 17.7 0.0 0.00 0.00 0.00 79 1017.0
20260507040008 17 360 17.7 0.0 0.00 0.00 0.00 79 1017.0
20260507035108 17 360 17.7 0.0 0.00 0.00 0.00 79 1017.0
20260507034207 17 360 17.7 0.0 0.00 0.00 0.00 79 1017.0
20260507033306 17 360 17.7 0.0 0.00 0.00 0.00 79 1017.0
20260507032406 17 360 17.7 0.0 0.00 0.00 0.00 79 1017.0
20260507031505 17 360 17.7 0.0 0.00 0.00 0.00 79 1017.0
20260507030605 17 360 17.7 0.0 0.00 0.00 0.00 79 1017.0
20260507025704 17 360 17.7 0.0 0.00 0.00 0.00 78 1017.0
20260507024804 18 360 17.7 0.0 0.00 0.00 0.00 77 1017.0
20260507023902 18 360 17.7 0.0 0.00 0.00 0.00 76 1016.0
20260507023001 18 360 17.7 0.0 0.00 0.00 0.00 76 1016.0
20260507022056 18 360 17.7 0.0 0.00 0.00 0.00 75 1016.0
20260507021155 18 360 17.7 0.0 0.00 0.00 0.00 72 1016.0
20260507020254 18 360 17.7 0.0 0.00 0.00 0.00 70 1016.0
20260507015354 18 360 17.7 0.0 0.00 0.00 0.00 67 1016.0
20260507014453 18 360 17.7 0.0 0.00 0.00 0.00 65 1016.0
20260507013551 18 360 17.7 0.0 0.00 0.00 0.00 61 1015.0
20260507012651 18 360 17.7 0.0 0.00 0.00 0.00 61 1015.0
20260507011750 18 360 17.7 0.0 0.00 0.00 0.00 57 1015.0
20260507010850 18 360 17.7 0.0 0.00 0.00 0.00 50 1015.0
20260507005944 18 360 17.7 0.0 0.00 0.00 0.00 50 1015.0
20260507005044 19 360 17.7 0.0 0.00 0.00 0.00 48 1014.0
20260507004142 19 360 17.7 0.0 0.00 0.00 0.00 48 1014.0
20260507003242 19 360 17.7 0.0 0.00 0.00 0.00 46 1014.0
20260507002341 20 360 17.7 0.0 0.00 0.00 0.00 46 1013.0
20260507001440 20 360 17.7 0.0 0.00 0.00 0.00 46 1013.0
20260507000537 20 360 17.7 0.0 0.00 0.00 0.00 46 1013.0
20260506235635 20 360 17.7 0.0 0.00 0.00 0.00 46 1013.0
20260506234734 21 360 17.7 0.0 0.00 0.00 0.00 46 1013.0
20260506233834 21 360 17.7 0.0 0.00 0.00 0.00 46 1013.0
20260506232933 21 360 17.7 0.0 0.00 0.00 0.00 46 1012.0
20260506232032 21 360 17.7 0.0 0.00 0.00 0.00 46 1012.0
20260506231131 21 360 17.7 0.0 0.00 0.00 0.00 46 1012.0
20260506230228 22 360 17.7 0.0 0.00 0.00 0.00 46 1012.0
20260506225327 22 360 17.7 0.0 0.00 0.00 0.00 46 1012.0
20260506224426 23 360 17.7 0.0 0.00 0.00 0.00 46 1011.0
20260506223526 23 360 17.7 0.0 0.00 0.00 0.00 46 1011.0
20260506222625 23 360 17.7 0.0 0.00 0.00 0.00 46 1010.0
20260506221724 24 360 17.7 0.0 0.00 0.00 0.00 46 1010.0
20260506220823 24 360 17.7 0.0 0.00 0.00 0.00 46 1010.0
20260506215922 25 360 17.7 0.0 0.00 0.00 0.00 46 1010.0
20260506215022 25 360 17.7 0.0 0.00 0.00 0.00 46 1010.0
20260506214121 25 360 17.7 0.0 0.00 0.00 0.00 46 1010.0
20260506213221 26 360 17.7 0.0 0.00 0.00 0.00 46 1009.0
20260506212319 26 360 17.7 0.0 0.00 0.00 0.00 46 1009.0
20260506211416 26 360 17.7 0.0 0.00 0.00 0.00 46 1009.0
20260506210506 27 360 17.7 0.0 0.00 0.00 0.00 46 1009.0
20260506205604 27 360 17.7 0.0 0.00 0.00 0.00 46 1009.0
20260506204703 27 360 17.7 0.0 0.00 0.00 0.00 47 1009.0
20260506203803 27 360 17.7 0.0 0.00 0.00 0.00 47 1009.0